星链-2043 (STARLINK-2043 )

导读 | 豆包AI

STARLINK-2043是美国太空探索技术公司星链星座的卫星,于2021年2月16日发射升空,归属美国。星链系统旨在搭建全球卫星互联网,为全球提供覆盖广泛的互联网接入服务,该卫星是星链低轨互联网星座组网进程中的一员,服务于星座整体通信网络的搭建与运营。

Basic Information
目录编号:
47659
目录名称:
STARLINK-2043
国际标识:
2021-012AR
轨道中心:
EARTH
卫星名称:
星链-2043
卫星全名:
星链-2043 (STARLINK-2043 )
卫星状态:
已陨落 最后检测时间 2025-08-05
发射日期:
2021-02-16 UTC
国别 :
美国 (US)
星等 :
--
Orbit Information
数据来源 国际轨道数据
星历时间: 2025-08-05T15:58:52+0800
轨道信息已过期293天
半长轴: 6535.536km
偏心率: 0.000933
轨道倾角: 53.014°
近地点辐角 247.825°
升交点赤经 149.271°
平近点角 203.190°
近地点: 151.303km
远地点: 163.499km
周期: 87.636分钟
每日圈数: 16.431642
Detailed Information
固有亮度:
5
最大亮度:
2.5
卫星平台:
Starlink V1.0
覆盖范围:
全球
运营商:
太空探索技术公司
运营商所在国:
美国
制造商(研发单位):
太空探索技术公司
制造商所在国:
美国
使用方式:
暂无
Satellite Introduction
星链(Starlink)计划是由太空探索技术公司(SpaceX)提出的一个巨型低轨卫星互联网星座项目,计划在2019年至2024年间在太空搭建由约1.2万颗卫星组成的“星链”网络,其中1584颗将部署在地球上空550千米处的近地轨道,并从2020年开始工作。该卫星仍在工作。